Location: Coupvray
(48.8929°N, 2.7967°E)
Time: 04:29:58
(UTC+00:00)

Cosmos 1470 Rocket - Pass Details

Date: 14 July 2020
Orbit: 603 x 634 km, 82.5° (Epoch: 06 August)

Event Time Altitude Azimuth Distance (km) Brightness Sun altitude
Exits shadow 01:16:51 28° 233° (SW) 1,197 4.6 -17.1°
Maximum altitude 01:18:43 43° 285° (WNW) 898 4.3 -17.0°
Drops below altitude 10° 01:23:01 10° 358° (N) 2,030 7.2 -16.8°
Sets 01:25:22 0° 5° (N) 2,941 8.5 -16.6°
